Wind_Speed
4 5 6 7 7 7 7 7 6 6 6 4 4 4 3 3 4 6 8 8 6 5 3 3 6 10 8 6 8 10 3 4 6 7 7 8 8 6 5 7 7 7 6 3 2
4 5 6 7 8 7 7 7 7 7 6 5 5 4 4 2 3 5 8 7 6 6 7 4 9 10 9 6 11 9 4 4 6 8 8 6 7 4 6 7 7 6 3 2 2
5 5 6 7 7 8 8 8 8 8 6 6 6 5 4 2 4 6 6 6 6 6 7 5 11 10 7 8 7 9 2 5 6 8 7 7 7 7 8 8 5 3 1 2 2
6 7 7 7 7 8 9 9 9 8 7 6 6 5 4 3 1 3 4 4 5 5 5 3 9 5 6 5 4 4 0 1 0 1 4 5 6 6 7 8 6 1 2 2 2
6 7 8 7 7 8 9 10 10 9 7 7 6 5 5 3 3 3 3 3 3 4 3 6 7 6 5 3 3 5 4 4 4 4 4 5 7 8 5 6 5 3 2 3 4
6 6 7 8 8 8 9 10 11 10 8 8 8 7 7 3 1 1 2 1 1 3 4 6 6 5 5 4 4 6 4 5 6 8 5 6 6 5 4 4 3 3 2 3 4
10 8 7 7 8 8 9 10 11 10 9 8 8 8 7 4 3 1 2 1 0 2 4 5 6 5 5 5 5 6 6 4 10 10 9 7 4 5 4 5 4 4 3 4 6
13 12 10 8 7 9 10 9 10 11 11 9 8 8 6 6 5 3 2 1 1 1 3 5 6 7 8 9 9 4 7 10 13 12 11 10 7 5 5 6 4 4 5 4 7
14 14 13 11 9 8 10 10 10 10 10 10 10 10 7 7 4 5 3 2 2 2 4 6 7 9 7 5 4 5 6 5 10 13 13 13 10 9 6 7 8 7 6 6 7
15 14 13 13 12 11 11 10 10 11 11 11 12 9 10 3 5 6 5 3 3 3 5 7 7 4 5 8 2 2 5 5 9 12 17 16 8 11 12 10 6 8 8 6 5
17 15 14 12 12 12 11 10 12 13 12 13 9 15 4 5 7 5 6 5 4 3 7 7 3 4 5 8 5 6 6 6 9 13 16 15 11 11 11 7 6 6 8 8 5
19 17 16 14 12 11 11 12 12 10 12 12 14 12 8 8 6 6 7 7 6 6 6 1 1 1 5 7 4 4 4 7 10 12 15 9 7 7 5 6 7 7 8 9 7
20 20 18 16 14 13 12 9 9 11 7 12 14 16 11 12 10 8 9 8 7 6 5 5 1 5 8 4 3 5 6 8 14 13 7 10 5 7 9 12 9 7 5 6 7
21 21 21 19 17 16 12 10 9 10 6 9 14 16 16 12 11 9 9 9 7 7 5 5 4 3 3 5 4 5 5 10 13 10 3 8 2 5 7 9 9 9 6 6 7
22 22 24 22 18 16 13 12 11 9 4 6 14 12 14 16 7 12 12 11 11 9 7 3 3 4 5 3 4 3 6 6 6 4 4 7 3 2 5 10 12 9 9 8 8
23 24 25 25 22 17 15 16 12 6 8 9 9 17 16 17 12 8 14 12 10 7 7 8 8 7 3 3 2 4 3 0 4 3 2 2 8 1 3 11 12 9 9 8 9
26 26 27 25 25 23 21 19 12 8 5 9 12 16 18 17 18 11 11 15 9 9 10 7 5 5 4 3 1 2 1 1 2 3 3 2 6 1 5 12 12 9 9 9 7
29 28 28 27 27 26 27 27 10 5 13 5 9 15 20 19 18 17 11 15 17 11 8 5 3 3 4 3 1 3 6 2 3 0 4 6 1 3 8 9 9 12 12 11 11
30 31 30 29 29 30 32 34 18 12 12 15 10 16 19 19 10 19 18 14 15 15 8 8 4 5 5 4 3 2 2 3 2 0 2 3 3 5 2 5 9 11 17 18 18
33 33 30 31 34 35 37 37 23 17 13 11 14 15 20 23 18 16 16 13 16 17 17 9 4 6 6 6 5 5 4 3 2 2 1 4 4 4 6 8 12 13 21 23 23
35 34 32 34 37 41 47 46 28 19 17 12 13 12 13 19 20 18 11 9 20 17 19 14 11 4 6 7 5 6 5 4 4 2 4 1 4 7 6 7 11 18 22 24 22
39 38 35 40 45 49 51 45 36 27 22 23 17 17 17 16 16 18 15 13 12 17 22 18 9 7 7 7 8 8 7 8 4 5 4 2 6 6 5 8 15 20 23 22 21
41 40 37 43 50 52 48 49 40 34 28 25 22 23 21 17 15 22 19 18 11 17 14 19 10 6 4 10 14 15 13 13 9 7 11 5 4 7 9 13 19 20 17 17 21
44 43 42 49 53 52 48 49 48 42 35 29 23 22 23 25 23 21 23 20 18 17 17 15 14 10 9 4 5 9 12 15 15 10 10 22 20 18 15 16 16 17 13 19 23
50 48 46 49 56 55 50 45 48 47 39 33 30 30 27 27 25 22 26 24 21 20 20 19 15 18 15 12 14 15 16 18 24 22 22 25 25 19 15 14 16 16 15 20 26
54 50 52 45 33 51 53 56 47 51 49 42 37 32 30 29 28 29 27 21 21 23 24 24 15 18 19 18 20 23 24 25 27 29 31 30 30 13 11 13 17 16 16 20 26
58 59 50 53 45 41 59 53 50 43 46 42 34 32 33 30 23 23 22 17 22 21 21 24 24 17 13 18 18 21 27 27 27 28 27 31 14 12 13 18 20 14 16 23 28
Wind_Direction
168 174 174 178 181 187 183 188 192 187 187 179 160 141 126 122 77 75 56 46 48 49 48 128 118 102 95 126 145 155 160 148 182 226 251 275 282 284 281 286 302 301 318 310 320
184 177 180 185 187 192 191 193 192 190 187 173 162 151 143 126 98 74 57 44 45 49 52 124 90 90 70 110 144 158 144 186 225 247 266 291 291 313 296 293 285 280 294 283 269
209 197 195 197 196 197 196 195 194 191 190 176 166 159 155 137 70 54 50 42 44 47 67 110 87 71 75 95 139 182 269 227 251 251 283 305 303 308 287 297 284 244 286 213 202
222 218 208 200 200 199 198 196 193 194 192 184 176 168 166 152 83 60 41 30 37 37 47 129 87 66 74 77 117 181 99 57 113 270 293 308 298 294 292 293 308 103 184 200 217
226 222 219 211 204 198 196 195 195 198 194 191 186 181 189 187 118 70 36 19 25 34 41 50 81 104 91 66 75 67 67 59 41 14 343 321 317 305 301 296 298 310 193 213 214
233 227 222 218 211 205 200 197 199 199 194 195 194 194 206 211 250 8 11 342 7 35 37 57 65 93 97 93 83 60 60 52 55 11 358 339 328 332 335 359 319 300 265 241 231
231 231 228 219 215 211 205 203 203 203 205 205 203 206 218 243 253 307 307 296 29 56 61 51 49 63 90 97 63 65 51 61 15 16 6 11 14 15 7 6 356 331 290 257 254
229 232 231 225 213 212 217 207 204 207 214 214 212 220 230 241 238 258 258 234 172 92 79 64 63 58 80 95 63 84 18 4 359 357 2 355 340 26 2 352 359 326 316 283 267
223 233 232 231 226 218 223 215 208 208 211 212 217 227 231 248 250 251 250 202 175 129 96 80 83 83 87 63 48 40 28 356 345 340 340 339 332 331 327 324 327 321 309 291 274
220 221 230 228 226 223 225 220 212 213 213 213 222 230 229 202 238 236 237 207 168 157 110 104 107 116 65 20 28 296 313 308 333 326 327 328 340 321 321 319 311 304 300 299 292
210 217 221 224 221 216 219 217 213 215 218 223 227 225 200 259 248 222 217 202 174 155 151 91 47 68 352 323 320 313 312 308 316 319 319 321 323 301 289 316 347 322 305 302 306
214 210 213 218 218 214 217 219 220 215 225 227 237 241 235 251 254 219 207 200 182 172 116 131 298 316 324 307 291 272 287 306 311 321 318 326 344 26 29 7 339 328 305 306 308
215 211 209 211 211 211 216 220 230 223 244 229 234 240 243 234 245 214 205 201 189 188 155 235 290 287 302 299 320 315 321 317 321 332 325 356 70 42 19 4 355 347 325 305 314
214 212 209 207 208 210 204 201 217 213 258 253 227 234 226 230 241 200 198 197 198 198 199 241 251 288 289 309 332 342 337 328 323 336 35 23 6 21 11 29 9 354 345 325 314
212 213 210 206 208 205 200 198 198 208 294 208 214 208 211 207 213 206 204 201 204 199 208 188 217 273 300 312 337 332 331 336 358 40 79 42 11 23 357 10 3 349 341 335 323
215 210 212 206 201 195 200 191 191 198 251 211 200 213 207 204 199 191 200 201 208 212 225 240 268 282 267 293 317 337 330 29 79 78 69 84 356 205 323 347 350 357 351 339 330
214 214 210 208 202 191 187 186 178 220 219 229 215 212 201 208 205 205 203 203 199 204 221 227 235 242 240 212 184 27 104 96 46 12 217 263 320 267 351 339 352 3 356 338 340
217 212 213 204 202 198 188 184 200 208 216 223 214 199 204 198 211 208 205 198 199 189 176 196 207 186 176 170 139 64 62 94 156 315 300 304 314 15 348 358 10 5 359 343 336
217 215 209 205 200 199 198 191 209 189 225 236 217 199 198 202 209 204 212 207 206 196 176 197 231 209 201 187 165 153 103 100 82 344 305 332 343 323 311 340 341 347 342 338 329
213 215 210 204 201 201 205 205 201 204 215 225 228 213 202 202 203 201 203 211 204 195 202 203 210 211 211 211 208 183 163 144 145 128 292 284 276 246 273 313 321 306 319 329 334
214 211 206 204 204 204 211 215 208 197 218 227 208 200 214 209 209 207 201 205 212 204 203 210 216 201 200 206 199 198 192 173 149 160 156 273 248 223 288 317 303 302 319 327 330
216 206 205 207 203 210 213 213 211 216 223 227 217 204 207 211 216 206 210 207 208 212 209 208 221 216 217 216 223 222 212 194 195 185 203 227 275 206 234 286 308 313 325 335 339
215 209 202 205 209 214 217 218 209 215 219 227 221 214 204 212 213 212 207 218 216 206 199 204 210 182 218 233 232 228 221 213 218 228 221 189 233 220 269 292 301 315 330 335 331
213 206 206 205 212 219 218 222 214 222 222 217 222 219 211 213 213 208 216 220 218 213 205 202 214 208 199 170 183 203 208 215 225 234 239 247 275 269 285 285 293 310 312 327 333
212 212 214 212 212 215 218 225 218 218 226 225 225 222 215 212 216 215 217 221 222 214 210 211 223 223 225 248 252 252 249 246 249 259 255 279 285 302 292 276 298 298 296 323 330
216 210 211 217 217 216 217 222 222 220 226 228 226 226 220 220 223 223 227 222 223 219 216 221 231 233 237 241 257 261 260 258 261 262 265 274 287 300 254 286 305 292 290 315 326
213 214 220 219 213 215 221 223 224 224 232 235 238 233 228 227 233 236 242 236 236 231 226 222 228 238 250 255 254 259 259 258 262 267 272 266 298 271 269 298 305 292 300 312 321
Height
3187 3188 3190 3191 3193 3195 3196 3198 3200 3201 3203 3204 3204 3205 3205 3205 3205 3205 3205 3206 3205 3205 3204 3204 3204 3202 3205 3206 3207 3208 3210 3209 3210 3210 3210 3210 3209 3208 3207 3206 3205 3205 3205 3205 3205
3188 3189 3190 3192 3193 3195 3196 3198 3200 3201 3202 3203 3204 3205 3205 3205 3206 3206 3206 3205 3205 3205 3205 3205 3203 3204 3205 3206 3207 3207 3208 3208 3209 3209 3208 3209 3207 3207 3206 3205 3205 3204 3205 3205 3205
3189 3189 3191 3192 3193 3194 3196 3198 3200 3201 3202 3203 3204 3205 3206 3206 3207 3206 3206 3206 3205 3205 3205 3205 3203 3204 3205 3206 3207 3207 3208 3208 3209 3209 3208 3208 3206 3205 3204 3204 3204 3204 3204 3204 3204
3188 3190 3190 3192 3193 3194 3196 3198 3199 3201 3202 3203 3204 3205 3205 3206 3209 3206 3206 3207 3206 3205 3205 3205 3203 3204 3205 3206 3206 3207 3207 3207 3208 3208 3208 3206 3205 3204 3204 3203 3202 3203 3202 3203 3204
3188 3189 3190 3191 3193 3194 3195 3198 3199 3200 3201 3203 3204 3204 3205 3206 3206 3206 3206 3207 3206 3206 3206 3204 3204 3205 3205 3206 3206 3206 3207 3208 3208 3208 3207 3205 3204 3203 3203 3201 3201 3201 3202 3203 3203
3188 3188 3189 3191 3192 3194 3195 3196 3198 3200 3201 3202 3203 3204 3204 3205 3205 3205 3206 3207 3207 3206 3206 3205 3205 3205 3206 3206 3207 3208 3207 3208 3207 3207 3206 3205 3203 3202 3202 3201 3200 3200 3202 3202 3203
3187 3188 3189 3190 3192 3193 3194 3195 3197 3199 3200 3201 3202 3203 3203 3205 3204 3205 3206 3206 3207 3206 3206 3206 3205 3206 3207 3207 3208 3207 3207 3208 3207 3207 3205 3204 3204 3202 3202 3200 3200 3201 3202 3203 3203
3185 3187 3188 3190 3191 3192 3193 3195 3196 3198 3199 3200 3201 3201 3202 3203 3204 3205 3205 3206 3206 3206 3206 3206 3206 3206 3207 3208 3208 3207 3207 3205 3206 3205 3204 3205 3203 3202 3201 3201 3201 3201 3201 3202 3202
3183 3185 3186 3188 3190 3191 3192 3194 3195 3196 3197 3198 3200 3200 3201 3201 3203 3203 3204 3205 3206 3206 3206 3206 3206 3206 3207 3207 3208 3208 3207 3207 3206 3205 3204 3204 3202 3201 3201 3200 3199 3200 3200 3200 3201
3180 3183 3184 3186 3188 3190 3190 3192 3193 3195 3196 3197 3198 3201 3200 3201 3201 3202 3203 3204 3205 3206 3206 3206 3206 3206 3206 3207 3207 3207 3207 3207 3206 3206 3203 3201 3201 3199 3198 3198 3198 3198 3198 3199 3200
3177 3180 3182 3184 3187 3188 3189 3191 3194 3195 3194 3196 3196 3196 3198 3199 3200 3201 3202 3203 3204 3205 3206 3205 3206 3206 3206 3207 3207 3207 3206 3205 3204 3203 3201 3199 3198 3197 3197 3196 3196 3196 3196 3196 3198
3173 3176 3179 3182 3184 3187 3188 3189 3190 3192 3193 3193 3194 3194 3197 3197 3198 3199 3201 3203 3203 3204 3204 3206 3206 3206 3206 3206 3206 3205 3205 3204 3203 3202 3200 3198 3196 3196 3195 3196 3196 3195 3195 3195 3195
3170 3173 3176 3179 3182 3185 3187 3189 3189 3190 3191 3191 3191 3192 3195 3197 3196 3198 3200 3201 3202 3203 3203 3204 3205 3205 3205 3205 3204 3203 3203 3202 3201 3198 3197 3196 3196 3196 3196 3195 3194 3194 3194 3194 3194
3166 3170 3173 3176 3181 3181 3185 3187 3188 3189 3190 3188 3187 3189 3192 3193 3195 3196 3198 3201 3201 3202 3202 3203 3204 3204 3204 3203 3203 3202 3201 3200 3198 3197 3196 3196 3197 3196 3196 3196 3195 3194 3194 3193 3193
3162 3165 3169 3173 3176 3180 3184 3185 3187 3189 3189 3185 3183 3185 3187 3191 3192 3193 3195 3197 3198 3200 3202 3203 3202 3202 3202 3202 3201 3202 3200 3198 3197 3196 3196 3196 3197 3195 3196 3196 3196 3195 3193 3193 3192
3157 3160 3164 3169 3173 3178 3181 3183 3186 3191 3184 3180 3180 3181 3184 3186 3190 3190 3193 3196 3197 3198 3199 3200 3200 3200 3200 3200 3200 3199 3199 3198 3197 3197 3197 3197 3198 3195 3195 3196 3195 3194 3193 3192 3191
3152 3156 3159 3165 3170 3173 3176 3181 3186 3182 3179 3177 3176 3178 3181 3184 3187 3189 3190 3192 3195 3196 3196 3197 3198 3198 3198 3198 3199 3198 3198 3197 3199 3198 3198 3197 3196 3195 3195 3194 3193 3193 3192 3191 3191
3147 3150 3154 3160 3165 3170 3171 3176 3177 3173 3173 3173 3174 3177 3178 3181 3183 3186 3188 3189 3191 3192 3194 3195 3197 3196 3196 3198 3198 3197 3197 3196 3199 3201 3198 3196 3196 3196 3195 3194 3193 3192 3191 3190 3189
3141 3144 3148 3155 3160 3164 3168 3167 3165 3168 3169 3171 3173 3175 3176 3178 3181 3183 3185 3186 3188 3189 3192 3193 3194 3195 3196 3196 3198 3197 3197 3198 3198 3199 3198 3196 3196 3194 3194 3194 3192 3191 3190 3188 3187
3132 3137 3144 3149 3154 3157 3160 3158 3161 3163 3166 3167 3169 3170 3172 3174 3178 3180 3181 3182 3184 3186 3188 3190 3192 3193 3194 3194 3196 3196 3198 3198 3197 3200 3199 3195 3193 3192 3192 3192 3191 3189 3187 3186 3183
3126 3130 3138 3142 3146 3148 3145 3149 3156 3159 3162 3165 3166 3167 3169 3171 3174 3176 3178 3179 3180 3183 3186 3188 3191 3192 3192 3192 3193 3194 3194 3195 3196 3197 3198 3199 3191 3190 3190 3190 3189 3187 3185 3183 3181
3118 3121 3128 3131 3135 3134 3136 3143 3153 3153 3156 3159 3162 3164 3167 3169 3171 3173 3174 3176 3178 3181 3182 3186 3187 3188 3190 3189 3190 3191 3191 3192 3193 3195 3195 3195 3189 3186 3187 3187 3186 3184 3181 3179 3176
3109 3114 3116 3121 3120 3124 3134 3137 3144 3146 3150 3154 3157 3160 3163 3165 3169 3170 3171 3174 3176 3178 3179 3182 3184 3185 3187 3189 3187 3187 3188 3189 3190 3191 3190 3192 3184 3184 3183 3183 3182 3180 3178 3176 3174
3101 3104 3105 3104 3111 3118 3125 3129 3135 3139 3143 3147 3151 3155 3159 3161 3164 3166 3167 3171 3173 3175 3177 3179 3179 3180 3180 3180 3182 3183 3184 3185 3187 3186 3184 3179 3180 3180 3180 3179 3178 3176 3175 3173 3170
3087 3086 3090 3090 3097 3107 3117 3121 3126 3130 3136 3141 3144 3147 3152 3155 3159 3161 3163 3167 3169 3171 3174 3176 3176 3177 3177 3177 3178 3180 3181 3181 3179 3180 3178 3174 3173 3174 3175 3174 3173 3171 3170 3168 3166
3073 3076 3080 3086 3095 3103 3104 3106 3115 3123 3128 3132 3136 3142 3146 3149 3152 3154 3158 3162 3164 3167 3169 3171 3173 3173 3174 3175 3174 3173 3173 3173 3172 3171 3169 3169 3167 3170 3169 3169 3168 3166 3165 3164 3161
3061 3069 3073 3078 3086 3091 3089 3100 3108 3118 3121 3128 3135 3138 3139 3145 3149 3151 3155 3157 3159 3161 3163 3166 3168 3170 3170 3170 3171 3169 3163 3164 3165 3164 3164 3163 3164 3165 3164 3163 3162 3161 3160 3159 3156